Wind_Speed
16 16 16 11 10 7 5 20 23 30 25 26 37 31 27 31 43 44 48 48 47 46 43 43 44 40 37 33 35 32 31 30 36 35 27 27 27 30 28 31 31 32 31
15 16 14 10 7 3 9 26 31 37 34 44 37 32 30 37 41 47 44 43 43 42 38 36 34 34 30 32 32 30 29 28 32 28 29 27 25 24 23 26 33 32 33
11 16 14 11 9 14 25 33 43 42 41 43 34 32 35 35 37 36 37 32 31 34 33 29 28 27 26 26 26 26 27 30 25 27 29 33 33 29 30 30 31 30 31
10 14 13 13 20 32 39 43 42 42 52 44 33 31 36 35 36 39 33 29 27 25 26 27 26 25 21 20 24 22 24 21 24 28 31 25 23 25 24 28 27 28 28
7 10 12 15 22 33 39 41 43 50 43 42 36 26 32 29 32 26 19 17 9 9 13 16 22 19 14 16 17 19 20 23 25 31 25 25 27 25 25 25 23 28 28
3 4 10 15 25 33 38 37 41 44 38 32 30 30 35 28 25 17 19 13 18 12 12 8 4 5 12 17 18 22 24 25 26 26 23 24 26 25 24 24 24 25 26
5 2 8 11 17 28 35 37 38 33 32 33 30 28 19 24 21 20 19 15 13 12 8 7 4 10 16 18 21 25 27 24 23 23 21 18 19 19 19 19 22 21 21
9 5 6 11 18 32 35 35 34 31 30 30 26 21 17 15 16 19 11 7 13 12 9 8 8 12 20 23 25 28 27 22 22 20 19 15 14 14 16 18 17 16 16
15 11 11 14 20 26 33 34 34 33 29 27 23 19 17 15 11 12 14 12 9 11 13 14 17 21 19 26 28 26 25 23 20 17 16 13 11 9 14 15 17 19 17
21 18 16 20 25 26 30 31 30 28 24 23 24 22 17 13 10 18 15 11 11 15 19 24 22 22 24 28 25 23 23 20 18 17 15 15 14 13 13 11 11 9 8
29 24 23 25 25 26 30 32 30 30 30 25 23 23 19 17 17 20 16 14 18 18 27 29 27 26 25 22 19 18 18 17 16 13 11 10 9 11 4 0 2 2 7
37 30 28 28 31 30 31 27 23 26 30 28 23 24 19 19 22 23 19 19 18 22 26 23 22 23 23 21 20 18 15 12 10 8 7 8 7 4 5 5 6 7 8
43 39 36 34 32 37 37 32 28 26 31 28 27 24 20 18 19 21 24 25 23 23 24 24 21 18 19 18 16 14 11 9 9 7 7 7 5 6 6 7 9 10 11
47 44 43 43 40 36 37 36 33 29 32 31 28 26 22 22 22 22 22 21 20 23 25 24 23 20 17 16 13 14 12 11 12 12 10 11 11 12 12 13 14 15 18
50 51 46 47 45 42 39 38 37 35 32 30 28 26 22 21 22 23 25 25 22 21 20 19 19 22 21 21 18 16 15 16 17 16 16 17 18 19 21 20 22 23 21
57 56 51 49 49 46 43 43 42 41 38 36 33 30 28 26 23 25 26 25 23 19 19 21 23 21 29 27 25 24 23 24 23 22 22 25 27 27 27 29 31 31 29
68 64 60 54 53 53 49 49 44 43 43 39 33 31 29 28 28 27 29 28 26 24 20 19 20 21 24 33 33 31 32 31 32 31 31 30 32 33 36 37 37 36 36
79 74 69 64 60 57 55 55 51 47 44 42 39 36 34 31 30 29 30 28 27 29 27 27 29 30 30 31 33 37 35 32 34 35 36 36 37 38 37 40 40 40 40
79 84 78 71 67 61 60 60 58 53 50 46 42 41 41 38 32 28 27 20 24 25 31 33 31 37 39 38 38 39 39 40 41 40 40 41 41 42 44 44 43 45 45
75 80 87 83 75 68 66 66 66 61 55 50 50 47 45 45 40 39 40 38 37 40 35 30 38 42 39 38 41 42 42 44 45 46 47 47 45 43 42 47 50 50 51
79 79 88 89 82 75 72 73 72 68 62 60 57 55 51 48 48 46 40 36 41 38 41 40 38 42 49 51 50 53 50 47 47 47 48 50 49 50 50 52 53 54 55
78 83 86 93 89 83 79 78 79 75 70 67 66 62 58 53 54 53 50 40 42 40 36 41 46 50 51 55 56 56 55 55 55 53 51 53 55 55 55 58 60 61 63
75 80 87 94 95 91 86 82 83 81 77 72 71 66 67 68 61 61 53 51 46 45 48 50 62 55 56 55 53 58 59 57 59 61 60 61 64 65 69 70 67 66 67
73 79 84 92 99 98 93 90 87 87 85 82 79 78 76 74 73 69 61 55 50 46 55 48 61 55 55 56 58 62 63 66 67 67 69 70 74 74 72 74 74 76 72
61 73 78 85 96 101 100 97 94 92 90 90 87 85 83 78 74 74 70 64 60 55 53 62 69 68 68 70 73 73 72 72 74 79 78 78 77 75 76 76 80 80 83
61 74 76 85 90 97 99 100 101 99 97 95 93 91 88 84 82 79 77 70 75 71 70 66 72 72 70 72 78 81 84 85 85 81 80 84 82 85 87 87 87 88 92
Wind_Direction
7 2 2 11 353 359 212 173 167 171 165 145 134 128 114 114 135 131 112 114 110 105 102 106 110 116 113 102 100 99 91 99 90 90 95 94 83 91 80 71 76 75 68
357 359 13 11 40 22 177 157 154 155 152 136 132 126 123 134 144 136 116 111 106 104 100 100 104 107 108 107 109 106 102 106 105 86 88 85 81 88 81 74 74 77 76
350 4 20 35 75 98 134 139 142 147 145 135 133 130 130 138 143 132 130 116 108 108 107 108 104 110 110 110 106 105 110 120 107 97 104 96 89 88 88 82 77 76 75
348 14 33 75 107 116 129 128 136 141 143 142 137 134 144 146 147 137 132 128 116 107 106 111 122 120 116 119 120 119 115 117 112 106 109 96 93 91 92 86 84 79 78
328 27 50 100 131 128 125 125 137 139 143 145 141 141 149 148 152 144 154 168 157 129 121 116 118 107 99 135 141 135 114 124 111 116 100 95 90 97 91 87 84 84 80
256 20 63 120 130 127 125 128 144 145 140 148 151 149 155 154 161 157 155 165 163 162 169 163 113 63 113 121 136 127 123 122 119 120 106 96 93 97 92 92 90 91 90
174 255 79 133 164 141 134 138 145 147 151 152 153 154 157 165 150 159 156 164 173 179 164 179 166 110 130 124 131 132 132 125 127 119 122 110 104 101 95 98 100 95 92
197 227 131 149 170 146 141 153 155 158 163 160 159 161 161 154 147 160 162 147 155 161 161 158 138 129 129 132 136 132 136 134 137 130 130 119 117 108 101 100 100 94 86
217 213 177 160 169 157 151 158 164 165 165 173 175 175 180 200 240 195 176 172 167 170 151 149 142 136 133 127 124 126 130 135 137 140 137 129 133 122 123 119 105 96 85
212 203 203 181 167 163 164 163 172 172 175 175 183 193 202 218 204 172 173 164 165 156 152 144 142 138 130 123 121 128 133 136 139 144 152 150 150 144 142 130 123 101 83
210 206 198 193 188 180 170 171 173 179 183 186 186 192 186 179 185 183 180 170 169 160 157 154 151 149 144 138 136 136 136 138 141 139 143 161 173 168 162 152 334 313 327
212 206 200 203 199 194 179 181 186 193 189 186 188 188 186 182 183 179 177 172 168 160 163 162 154 156 149 149 148 147 144 148 154 167 178 186 204 215 247 290 310 328 332
214 214 212 205 210 204 203 207 205 203 201 197 190 193 193 197 197 192 186 186 186 184 182 181 178 178 172 173 174 177 177 188 196 200 212 230 253 276 296 297 300 299 286
211 212 212 207 209 210 207 209 204 206 201 199 196 193 196 203 200 189 187 191 192 190 195 192 189 193 200 206 217 219 215 223 228 232 246 256 266 276 275 277 280 283 282
214 212 212 209 210 210 204 204 198 198 194 196 194 192 191 199 206 203 196 195 197 199 203 211 218 223 221 225 233 233 235 239 252 262 263 272 280 283 282 282 284 286 280
218 217 211 207 210 211 208 202 198 197 194 194 193 196 193 192 194 203 209 208 206 212 220 232 241 244 233 234 236 236 241 246 258 262 262 268 272 275 282 284 288 290 289
220 223 220 217 216 213 214 207 205 203 197 199 199 201 200 200 197 199 210 220 223 226 238 241 245 252 245 236 237 239 253 254 255 259 264 267 270 275 281 282 281 284 286
222 225 224 223 224 219 215 214 210 207 206 201 203 205 213 206 208 211 216 221 226 236 246 252 254 252 250 245 243 247 255 262 266 268 266 269 270 274 278 281 280 282 284
222 224 225 226 226 224 220 215 217 211 213 209 213 212 214 212 225 221 231 239 246 243 268 264 262 263 253 248 249 256 264 269 267 267 268 271 274 277 277 276 279 281 282
223 222 224 226 225 225 224 220 218 217 216 215 219 218 220 224 220 226 230 241 257 258 266 257 260 273 270 267 267 266 265 268 268 271 269 271 270 274 277 274 276 280 282
221 222 222 224 222 222 225 228 224 219 220 220 220 222 227 233 225 225 234 247 250 255 252 256 261 263 264 267 265 268 264 260 263 267 274 275 275 276 274 275 277 280 281
223 221 221 223 223 221 222 226 230 227 219 222 219 224 228 231 231 228 235 235 237 237 247 249 250 255 255 258 261 262 261 262 264 266 270 273 274 275 278 280 279 278 279
227 225 221 221 223 222 223 225 227 230 226 224 223 224 227 232 233 233 235 239 233 244 234 243 250 242 256 256 260 257 259 262 265 266 268 271 274 277 281 284 280 279 280
225 229 227 224 223 223 223 225 227 229 231 229 226 228 230 234 236 234 237 237 232 229 232 245 234 241 249 248 250 258 260 264 265 265 270 274 281 281 285 284 280 278 277
230 226 228 229 224 225 226 225 227 228 229 232 232 234 233 235 239 236 236 240 236 235 240 244 246 251 254 250 254 260 266 267 270 276 277 282 280 280 281 280 281 280 280
226 219 220 231 231 228 225 229 230 229 231 232 235 237 239 238 239 240 241 244 237 240 244 248 252 251 250 253 257 258 264 268 272 273 276 277 278 281 283 284 283 284 284
Height
10915 10911 10907 10903 10899 10898 10896 10902 10908 10918 10925 10932 10934 10938 10939 10939 10942 10945 10946 10946 10947 10949 10952 10956 10958 10960 10962 10963 10963 10965 10967 10967 10968 10969 10969 10970 10970 10970 10970 10970 10967 10969 10970
10919 10915 10910 10907 10900 10896 10897 10901 10908 10917 10927 10933 10938 10940 10941 10943 10947 10950 10952 10953 10954 10956 10960 10963 10966 10967 10968 10967 10969 10970 10971 10971 10974 10975 10974 10974 10973 10974 10975 10974 10971 10975 10975
10924 10919 10914 10909 10903 10898 10899 10903 10910 10919 10928 10934 10940 10942 10946 10949 10952 10954 10957 10959 10962 10964 10966 10968 10969 10972 10973 10974 10973 10975 10976 10976 10979 10980 10980 10979 10979 10979 10979 10978 10976 10981 10980
10925 10922 10918 10913 10909 10906 10907 10910 10917 10924 10931 10936 10942 10947 10951 10953 10956 10958 10960 10964 10966 10969 10970 10971 10974 10976 10978 10978 10978 10979 10980 10981 10983 10984 10985 10984 10984 10984 10984 10983 10983 10985 10985
10928 10925 10922 10921 10918 10915 10915 10918 10926 10931 10936 10941 10944 10952 10957 10960 10960 10963 10965 10967 10969 10971 10974 10975 10978 10979 10980 10981 10981 10982 10983 10986 10988 10988 10989 10988 10989 10989 10989 10989 10989 10990 10990
10931 10929 10927 10928 10926 10923 10921 10923 10933 10938 10942 10947 10952 10956 10962 10964 10966 10967 10969 10970 10972 10974 10976 10977 10978 10979 10982 10983 10984 10985 10986 10989 10991 10992 10993 10993 10995 10995 10994 10994 10995 10995 10996
10932 10930 10930 10930 10932 10930 10930 10931 10936 10941 10947 10952 10956 10960 10963 10966 10967 10969 10971 10972 10973 10975 10976 10978 10978 10980 10982 10983 10986 10987 10989 10990 10993 10994 10995 10997 10998 10998 10998 10999 10999 10999 11000
10931 10932 10932 10933 10934 10933 10934 10937 10939 10943 10949 10955 10960 10962 10964 10967 10970 10972 10973 10974 10974 10976 10978 10979 10979 10981 10982 10985 10987 10989 10991 10993 10994 10995 10997 10999 11000 11001 11002 11003 11003 11003 11003
10930 10932 10934 10935 10936 10937 10937 10940 10944 10946 10950 10955 10959 10964 10967 10968 10969 10970 10974 10976 10977 10977 10978 10979 10982 10984 10984 10987 10987 10991 10993 10995 10997 10999 11000 11001 11002 11004 11005 11006 11006 11006 11006
10927 10930 10934 10936 10937 10938 10939 10942 10946 10947 10951 10954 10958 10962 10967 10969 10969 10970 10974 10975 10978 10979 10979 10980 10982 10984 10986 10988 10992 10995 10997 10999 11000 11002 11002 11004 11006 11008 11009 11009 11008 11007 11008
10923 10927 10929 10935 10938 10939 10940 10944 10946 10948 10950 10954 10958 10962 10965 10968 10970 10971 10975 10978 10980 10981 10982 10983 10983 10986 10989 10991 10993 10996 10999 11001 11002 11003 11005 11006 11008 11009 11010 11009 11008 11008 11008
10916 10920 10924 10928 10933 10937 10938 10942 10945 10948 10950 10951 10957 10961 10963 10967 10971 10973 10975 10978 10981 10983 10984 10985 10987 10989 10990 10993 10995 10998 11000 11001 11003 11005 11005 11006 11007 11007 11007 11006 11006 11006 11006
10906 10911 10916 10921 10927 10932 10935 10938 10940 10945 10948 10950 10953 10958 10960 10963 10967 10971 10975 10977 10980 10983 10985 10987 10988 10992 10993 10994 10996 10997 10999 11001 11002 11003 11005 11005 11004 11005 11005 11005 11005 11004 11004
10896 10903 10910 10914 10920 10926 10930 10933 10936 10939 10944 10948 10950 10954 10958 10959 10962 10966 10971 10975 10978 10981 10984 10987 10988 10991 10993 10995 10995 10995 10995 10997 10999 11000 11001 11002 11002 11002 11002 11002 11002 11001 11000
10886 10894 10901 10908 10913 10919 10924 10928 10930 10935 10938 10943 10947 10950 10954 10957 10959 10963 10966 10970 10973 10977 10980 10984 10986 10987 10988 10989 10990 10992 10993 10994 10995 10995 10996 10997 10998 10998 10997 10997 10997 10997 10996
10878 10884 10891 10900 10906 10912 10917 10921 10925 10929 10934 10938 10942 10946 10948 10952 10956 10960 10963 10965 10969 10972 10975 10979 10981 10982 10983 10984 10985 10986 10988 10989 10990 10991 10992 10993 10993 10992 10992 10991 10990 10989 10989
10866 10872 10881 10889 10896 10902 10908 10913 10918 10923 10926 10932 10935 10940 10944 10947 10950 10954 10957 10961 10965 10967 10970 10972 10975 10976 10976 10978 10980 10981 10981 10982 10983 10984 10984 10985 10984 10984 10984 10984 10982 10981 10980
10853 10861 10869 10877 10884 10892 10900 10906 10909 10915 10920 10925 10926 10932 10936 10941 10946 10950 10954 10957 10959 10962 10964 10965 10967 10969 10970 10971 10971 10972 10972 10974 10974 10975 10976 10976 10975 10975 10974 10973 10972 10972 10971
10837 10846 10855 10865 10873 10881 10888 10896 10902 10904 10910 10915 10920 10924 10927 10932 10937 10942 10947 10949 10952 10955 10957 10958 10958 10958 10959 10960 10961 10963 10965 10965 10965 10966 10966 10966 10965 10964 10963 10962 10961 10960 10959
10820 10829 10838 10848 10858 10868 10875 10882 10889 10894 10900 10905 10910 10915 10919 10923 10928 10931 10935 10939 10942 10946 10948 10950 10950 10948 10949 10951 10952 10953 10954 10955 10955 10955 10954 10954 10953 10952 10952 10952 10951 10949 10947
10799 10810 10820 10830 10842 10851 10859 10866 10874 10881 10887 10892 10898 10904 10909 10914 10919 10922 10926 10929 10931 10933 10937 10938 10939 10939 10937 10938 10939 10941 10942 10943 10943 10942 10942 10943 10942 10940 10939 10938 10938 10936 10935
10782 10794 10803 10811 10823 10834 10842 10850 10858 10866 10873 10879 10883 10888 10896 10902 10907 10912 10914 10915 10919 10921 10925 10924 10926 10924 10926 10925 10927 10929 10929 10930 10930 10930 10929 10930 10929 10927 10926 10924 10923 10922 10920
10766 10775 10784 10793 10803 10816 10826 10834 10842 10850 10857 10864 10870 10875 10881 10887 10892 10897 10901 10904 10907 10909 10914 10911 10915 10917 10916 10914 10912 10913 10915 10915 10916 10916 10916 10914 10914 10913 10910 10909 10907 10905 10903
10752 10757 10765 10776 10785 10795 10806 10816 10826 10832 10839 10845 10854 10860 10865 10869 10875 10881 10886 10890 10895 10899 10901 10901 10901 10902 10902 10901 10900 10897 10901 10901 10901 10901 10901 10900 10899 10896 10894 10892 10889 10886 10883
10735 10742 10749 10757 10767 10777 10786 10793 10804 10812 10820 10826 10834 10839 10845 10851 10858 10867 10872 10878 10882 10885 10886 10888 10889 10888 10886 10887 10885 10884 10886 10885 10885 10884 10883 10881 10879 10877 10875 10873 10870 10868 10864
10721 10727 10736 10741 10749 10758 10766 10774 10782 10790 10798 10807 10814 10819 10826 10834 10840 10848 10855 10861 10865 10866 10870 10872 10872 10872 10872 10871 10867 10869 10869 10867 10865 10865 10862 10860 10857 10855 10854 10852 10849 10846 10843